Date String (YYYY-MM-DD hh:mm:ss) UTC,Instrument flags,absolute air pressure of the measurement (hPa),sample flow rate (lpm),inlet stack bypass flow (lpm),air temperature of the measurement (°C),ambient temperature measured by the external sensor (°C),aerosol sample conditioner tube jacket temperature (°C),OPC LED temperature (°C),internal box temperature (°C),relative humidity of the measurement (%),span deviation,mass concentration of particles derived from Lorenz-Mie calculation of OPC scattering (μg/m³),mass concentration of particles derived from Lorenz-Mie calculation of OPC scattering (μg/m³),mass concentration of particles derived from Lorenz-Mie calculation of OPC scattering (μg/m³)
DateTimeUTC,F1_M11,P_M11,Q1_M11,Q2_M11,T1_M11,T2_M11,T3_M11,T4_M11,T5_M11,U1_M11,ZSPAN_M11,X0_M11,X2_M11,X1_M11
2023-11-12 23:00:00,SystemResetWarning,0837.2,5.00,000.00,027.8,026.5,000.0,035.9,029.4,7.2,0000.0,0015.50,0004.38,0003.64
2023-11-12 23:01:00,SystemResetWarning,0837.2,5.00,000.00,027.8,026.7,000.0,036.0,029.5,7.2,0000.0,0015.69,0004.36,0003.64
2023-11-12 23:02:00,SystemResetWarning,0837.2,5.00,000.00,027.9,026.9,000.0,036.0,029.5,7.2,0000.0,0015.64,0004.38,0003.62
2023-11-12 23:03:00,SystemResetWarning,0837.2,5.00,000.00,027.9,027.0,000.0,036.0,029.6,7.1,0000.0,0015.29,0004.39,0003.61
2023-11-12 23:04:00,SystemResetWarning,0837.2,5.00,000.00,028.0,027.1,000.0,036.0,029.6,7.1,0000.0,0013.83,0004.35,0003.59
2023-11-12 23:05:00,SystemResetWarning,0837.2,5.00,000.00,028.0,027.2,000.0,036.1,029.7,7.1,0000.0,0013.73,0004.32,0003.58
2023-11-12 23:06:00,SystemResetWarning,0837.2,5.00,000.00,028.1,027.3,000.0,036.1,029.8,7.1,0000.0,0013.66,0004.29,0003.56
2023-11-12 23:07:00,SystemResetWarning,0837.2,5.01,000.00,028.1,027.4,000.0,036.1,029.8,7.1,0000.0,0013.41,0004.25,0003.55
2023-11-12 23:08:00,SystemResetWarning,0837.3,4.99,000.00,028.2,026.9,000.0,036.2,029.8,7.1,0000.0,0013.29,0004.24,0003.55
2023-11-12 23:09:00,SystemResetWarning,0837.3,4.99,000.00,028.1,024.6,000.0,036.1,029.4,7.1,0000.0,0013.01,0004.24,0003.55
2023-11-12 23:10:00,SystemResetWarning,0837.2,5.02,000.00,027.9,023.4,000.0,036.1,029.1,7.1,0000.0,0012.58,0004.24,0003.54
2023-11-12 23:11:00,SystemResetWarning,0837.2,5.00,000.00,027.8,023.5,000.0,036.0,028.7,7.2,0000.0,0011.66,0004.25,0003.53
2023-11-12 23:12:00,SystemResetWarning,0837.2,4.99,000.00,027.6,023.9,000.0,036.0,028.5,7.2,0000.0,0011.04,0004.30,0003.52
2023-11-12 23:13:00,SystemResetWarning,0837.2,5.00,000.00,027.6,024.4,000.0,035.9,028.6,7.3,0000.0,0010.53,0004.28,0003.51
2023-11-12 23:14:00,SystemResetWarning,0837.2,5.01,000.00,027.5,024.9,000.0,035.9,028.7,7.3,0000.0,0010.36,0004.27,0003.51
2023-11-12 23:15:00,SystemResetWarning,0837.2,5.01,000.00,027.5,025.3,000.0,035.9,028.9,7.3,0000.0,0010.52,0004.29,0003.51
2023-11-12 23:16:00,SystemResetWarning,0837.2,5.00,000.00,027.6,025.6,000.0,035.9,029.0,7.3,0000.0,0010.88,0004.29,0003.50
2023-11-12 23:17:00,SystemResetWarning,0837.2,5.00,000.00,027.6,025.9,000.0,035.8,029.1,7.2,0000.0,0010.83,0004.25,0003.49
2023-11-12 23:18:00,SystemResetWarning,0837.2,5.00,000.00,027.6,026.2,000.0,035.9,029.2,7.2,0000.0,0010.62,0004.26,0003.48
2023-11-12 23:19:00,SystemResetWarning,0837.2,5.01,000.00,027.7,026.4,000.0,035.9,029.3,7.2,0000.0,0009.96,0004.24,0003.47
2023-11-12 23:20:00,SystemResetWarning,0837.2,5.00,000.00,027.7,026.6,000.0,035.9,029.3,7.2,0000.0,0009.85,0004.27,0003.45
2023-11-12 23:21:00,SystemResetWarning,0837.3,5.00,000.00,027.8,026.7,000.0,035.9,029.4,7.2,0000.0,0010.07,0004.24,0003.43
2023-11-12 23:22:00,SystemResetWarning,0837.5,5.00,000.00,027.8,026.9,000.0,035.9,029.5,7.2,0000.0,0010.46,0004.21,0003.42
2023-11-12 23:23:00,SystemResetWarning,0837.6,5.00,000.00,027.9,027.0,000.0,035.9,029.5,7.2,0000.0,0010.43,0004.15,0003.42
2023-11-12 23:24:00,SystemResetWarning,0837.3,5.00,000.00,027.9,027.1,000.0,036.0,029.6,7.2,0000.0,0010.34,0004.12,0003.40
2023-11-12 23:25:00,SystemResetWarning,0837.3,4.99,000.00,028.0,027.2,000.0,036.0,029.6,7.1,0000.0,0010.66,0004.09,0003.39
2023-11-12 23:26:00,SystemResetWarning,0837.3,5.00,000.00,028.0,027.3,000.0,036.0,029.7,7.1,0000.0,0011.00,0004.01,0003.36
2023-11-12 23:27:00,SystemResetWarning,0837.3,5.00,000.00,028.1,027.3,000.0,036.1,029.7,7.1,0000.0,0010.82,0003.97,0003.34
2023-11-12 23:28:00,SystemResetWarning,0837.3,5.00,000.00,028.1,027.4,000.0,036.1,029.8,7.1,0000.0,0010.75,0003.97,0003.30
2023-11-12 23:29:00,SystemResetWarning,0837.4,5.00,000.00,028.2,027.5,000.0,036.1,029.8,7.2,0000.0,0010.88,0003.93,0003.28
2023-11-12 23:30:00,SystemResetWarning,0837.4,5.00,000.00,028.2,027.5,000.0,036.2,029.8,7.3,0000.0,0011.07,0003.93,0003.28
2023-11-12 23:31:00,SystemResetWarning,0837.4,4.99,000.00,028.2,026.8,000.0,036.2,029.8,7.2,0000.0,0011.34,0003.91,0003.28
2023-11-12 23:32:00,SystemResetWarning,0837.3,5.00,000.00,028.1,024.4,000.0,036.1,029.4,7.1,0000.0,0011.71,0003.89,0003.26
2023-11-12 23:33:00,SystemResetWarning,0837.3,5.01,000.00,028.0,023.2,000.0,036.1,029.0,7.2,0000.0,0011.52,0003.89,0003.23
2023-11-12 23:34:00,SystemResetWarning,0837.3,5.02,000.00,027.8,023.3,000.0,036.0,028.6,7.2,0000.0,0011.42,0003.89,0003.19
2023-11-12 23:35:00,SystemResetWarning,0837.3,4.99,000.00,027.6,023.8,000.0,036.0,028.5,7.3,0000.0,0012.01,0003.83,0003.14
2023-11-12 23:36:00,SystemResetWarning,0837.3,5.00,000.00,027.5,024.3,000.0,035.9,028.5,7.4,0000.0,0011.78,0003.77,0003.06
2023-11-12 23:37:00,SystemResetWarning,0837.4,5.00,000.00,027.5,024.8,000.0,035.9,028.7,7.4,0000.0,0011.39,0003.77,0002.99
2023-11-12 23:38:00,SystemResetWarning,0837.3,5.00,000.00,027.5,025.2,000.0,035.9,028.8,7.3,0000.0,0011.04,0003.76,0002.95
2023-11-12 23:39:00,SystemResetWarning,0837.3,5.00,000.00,027.5,025.5,000.0,035.8,028.9,7.4,0000.0,0010.71,0003.74,0002.93
2023-11-12 23:40:00,SystemResetWarning,0837.3,5.00,000.00,027.5,025.8,000.0,035.8,029.0,7.3,0000.0,0010.85,0003.72,0002.88
2023-11-12 23:41:00,SystemResetWarning,0837.3,4.99,000.00,027.5,026.1,000.0,035.8,029.0,7.2,0000.0,0011.62,0003.66,0002.80
2023-11-12 23:42:00,SystemResetWarning,0837.4,5.00,000.00,027.6,026.2,000.0,035.8,029.1,7.2,0000.0,0011.63,0003.59,0002.71
2023-11-12 23:43:00,SystemResetWarning,0837.4,5.00,000.00,027.6,026.4,000.0,035.8,029.2,7.3,0000.0,0011.05,0003.54,0002.67
2023-11-12 23:44:00,SystemResetWarning,0837.4,5.01,000.00,027.6,026.5,000.0,035.8,029.2,7.3,0000.0,0011.78,0003.57,0002.67
2023-11-12 23:45:00,SystemResetWarning,0837.4,5.01,000.00,027.7,026.6,000.0,035.9,029.2,7.3,0000.0,0012.06,0003.57,0002.67
2023-11-12 23:46:00,SystemResetWarning,0837.4,5.00,000.00,027.7,026.7,000.0,035.9,029.3,7.3,0000.0,0012.18,0003.53,0002.66
2023-11-12 23:47:00,SystemResetWarning,0837.4,4.99,000.00,027.7,026.8,000.0,035.9,029.3,7.3,0000.0,0011.35,0003.54,0002.70
2023-11-12 23:48:00,SystemResetWarning,0837.4,4.99,000.00,027.8,026.8,000.0,035.9,029.4,7.2,0000.0,0011.91,0003.53,0002.74
2023-11-12 23:49:00,SystemResetWarning,0837.5,4.99,000.00,027.8,026.9,000.0,035.9,029.4,7.3,0000.0,0012.39,0003.51,0002.76
2023-11-12 23:50:00,SystemResetWarning,0837.4,5.00,000.00,027.8,027.0,000.0,036.0,029.4,7.3,0000.0,0012.63,0003.54,0002.78
2023-11-12 23:51:00,SystemResetWarning,0837.5,5.01,000.00,027.9,027.0,000.0,036.0,029.4,7.2,0000.0,0012.79,0003.52,0002.79
2023-11-12 23:52:00,SystemResetWarning,0837.5,5.00,000.00,027.9,027.0,000.0,036.0,029.5,7.2,0000.0,0012.42,0003.53,0002.78
2023-11-12 23:53:00,SystemResetWarning,0837.5,5.01,000.00,027.9,027.1,000.0,036.0,029.5,7.2,0000.0,0011.70,0003.53,0002.78
2023-11-12 23:54:00,SystemResetWarning,0837.5,4.99,000.00,027.9,027.1,000.0,036.1,029.5,7.2,0000.0,0011.77,0003.53,0002.78
2023-11-12 23:55:00,SystemResetWarning,0837.5,4.99,000.00,028.0,027.1,000.0,036.1,029.5,7.2,0000.0,0011.33,0003.50,0002.77
2023-11-12 23:56:00,SystemResetWarning,0837.5,5.01,000.00,028.0,027.1,000.0,036.1,029.5,7.2,0000.0,0010.81,0003.46,0002.76
2023-11-12 23:57:00,SystemResetWarning,0837.5,5.01,000.00,028.0,027.1,000.0,036.1,029.6,7.3,0000.0,0010.12,0003.46,0002.77
2023-11-12 23:58:00,SystemResetWarning,0837.5,4.99,000.00,028.0,027.2,000.0,036.2,029.6,7.3,0000.0,0010.05,0003.46,0002.78
2023-11-12 23:59:00,SystemResetWarning,0837.5,4.99,000.00,028.1,027.2,000.0,036.2,029.6,7.3,0000.0,0009.74,0003.48,0002.77
